Temp
15 15 15 15 15 15 15 15 15 15 15 15 15 15 15 15 15 14 14 14 14 13 13 13 13 13 12 12 12 12 12 12 12 12 12 12 12 12 12 12 12 12 12 12 12 12 12 11 11 11 11 11 12 12 12 12 12 12 12 12 12 12 12 12 12 12 12 12 12
14 14 14 14 14 15 15 15 15 15 15 15 15 15 15 15 15 15 15 14 14 14 14 14 14 13 13 13 13 12 12 12 12 12 12 12 12 12 12 12 12 12 12 12 12 12 12 12 12 11 11 11 12 12 12 12 12 12 12 12 12 12 12 12 12 12 12 12 12
14 14 14 14 14 14 15 15 15 15 14 14 14 14 14 14 14 14 14 14 14 14 14 14 14 14 14 13 13 13 13 13 13 12 12 12 12 12 12 12 12 12 12 12 12 12 12 12 12 12 12 12 12 12 12 12 12 12 12 12 12 12 12 12 12 12 12 12 12
14 14 14 14 14 14 14 14 14 14 14 14 14 14 14 14 14 14 14 14 14 14 14 14 14 14 14 14 13 13 13 13 13 13 13 12 12 12 12 12 12 12 12 12 12 12 12 12 11 11 11 12 12 12 12 12 12 12 12 12 12 12 12 12 12 12 12 12 12
14 14 14 14 14 14 14 14 14 14 14 14 13 13 13 13 13 13 13 13 13 13 13 13 13 13 13 13 13 13 13 13 13 13 13 13 12 12 12 12 12 12 12 12 12 12 12 12 12 11 11 11 11 11 11 12 12 12 12 12 12 12 12 12 12 12 12 12 12
13 13 13 13 13 13 13 13 13 13 13 13 12 12 12 12 12 12 12 12 12 12 12 12 12 12 12 12 12 12 12 12 12 12 12 12 12 12 12 12 12 12 12 12 12 12 12 12 12 12 11 11 11 11 11 11 12 12 12 12 12 12 12 12 12 12 12 12 12
12 12 12 12 12 12 12 12 12 12 12 12 12 12 11 11 11 11 11 11 11 11 11 11 11 11 11 11 11 11 11 12 12 12 12 12 12 12 12 12 12 12 11 11 11 11 11 11 11 11 11 11 11 11 11 11 11 11 11 11 11 11 12 12 12 12 12 12 12
12 11 11 11 11 11 11 11 12 12 12 11 11 11 11 11 11 11 11 11 11 11 11 11 11 11 11 11 11 11 11 11 11 11 11 11 11 12 12 12 12 12 12 11 11 11 11 11 11 11 11 11 11 11 11 11 11 11 11 11 11 11 11 11 11 11 11 11 11
12 11 11 11 11 11 11 11 11 11 11 11 11 11 11 11 11 11 11 11 11 11 11 10 10 10 10 10 10 10 10 10 10 10 11 11 11 11 11 11 12 12 12 12 12 11 11 11 11 11 11 11 11 11 11 11 11 11 11 11 11 11 11 11 11 11 11 11 11
12 11 11 11 11 11 11 11 11 11 11 11 11 11 11 11 11 10 10 10 10 10 10 10 10 10 10 10 10 10 10 10 10 10 10 10 10 10 11 11 11 11 11 12 12 12 12 11 11 11 11 11 11 11 11 11 11 11 11 11 11 11 11 11 11 11 11 11 11
11 11 11 11 11 11 11 11 11 11 11 10 10 10 10 10 10 10 10 10 10 10 10 10 10 10 10 10 10 10 10 10 10 10 10 10 10 10 10 10 10 11 11 11 11 11 11 12 12 11 11 11 11 11 11 11 11 11 11 11 11 11 11 11 11 11 11 11 11
10 10 10 10 10 10 10 11 10 10 10 10 10 10 10 10 10 10 10 9 9 9 10 10 9 9 9 9 10 10 10 10 10 10 10 10 10 10 10 10 10 10 10 10 11 11 11 11 11 12 12 12 11 11 11 11 11 11 11 11 11 11 11 11 11 11 11 11 11
10 10 10 10 10 10 10 10 10 10 10 10 10 9 9 9 9 9 9 9 9 9 9 9 9 9 9 9 9 9 9 9 9 9 10 10 10 10 10 10 10 10 10 10 10 10 10 11 11 11 11 11 11 11 11 11 11 11 10 10 10 11 11 11 11 11 10 10 10
10 10 9 10 10 10 10 10 10 9 9 9 9 9 9 9 9 9 9 9 9 9 9 9 9 9 9 9 9 9 9 9 9 9 9 9 9 9 9 9 9 10 10 10 10 10 10 10 10 10 10 11 11 11 11 11 11 11 10 10 10 10 10 10 10 10 10 10 10
9 9 9 9 9 9 9 9 9 9 9 9 9 9 9 9 9 9 9 8 8 9 9 9 9 9 9 9 9 9 9 9 9 9 9 9 9 9 9 9 9 9 9 9 9 9 9 10 10 10 10 10 10 10 10 10 10 10 10 10 10 10 10 10 10 10 10 10 10
9 9 9 9 9 9 9 9 9 9 9 9 9 9 8 8 8 8 8 8 8 8 8 8 8 9 9 9 9 9 9 9 9 9 9 9 9 9 9 9 9 9 9 9 9 9 9 9 9 9 9 10 10 10 10 10 10 10 10 10 10 10 10 10 10 10 10 10 10
9 9 9 9 9 9 9 9 9 9 9 9 8 8 8 8 8 8 8 8 8 8 8 8 8 8 8 8 8 8 8 8 8 9 9 9 9 9 9 9 9 9 9 9 9 9 9 9 9 9 9 9 9 9 9 9 9 9 9 9 9 9 9 9 9 9 9 9 9
9 8 8 8 8 8 8 8 8 8 8 8 8 8 8 8 8 8 8 8 8 8 8 8 8 8 8 8 8 8 8 8 8 8 8 8 9 9 9 9 9 9 9 9 9 9 9 9 9 9 9 9 9 9 9 9 9 9 9 9 9 9 9 9 9 9 9 9 9
8 8 8 8 8 8 8 8 8 8 8 8 8 8 8 8 8 8 8 8 8 8 8 8 8 8 8 8 8 8 8 8 8 8 8 8 8 8 9 9 9 9 9 9 9 9 9 9 9 9 9 9 9 9 9 9 9 9 9 8 8 8 8 8 9 9 9 9 9
8 8 8 8 8 8 8 8 8 8 8 8 8 8 8 8 8 8 8 8 8 8 8 7 8 8 8 8 8 8 8 8 8 8 8 8 8 8 8 8 9 9 9 9 9 9 9 9 9 9 9 9 9 9 9 8 8 8 8 8 8 8 8 8 8 8 8 8 9
7 7 7 7 7 7 7 7 8 8 8 8 8 8 8 8 8 8 8 8 8 8 8 7 7 7 7 7 8 8 8 8 8 8 8 8 8 8 8 8 8 8 9 9 9 9 9 9 9 9 8 8 8 8 8 8 8 8 8 8 8 8 8 8 8 8 8 8 8
7 7 6 7 7 7 7 7 7 7 7 7 7 7 8 8 8 8 8 8 8 8 7 7 7 7 7 7 7 8 8 8 8 8 8 8 8 8 8 8 8 8 8 8 8 9 8 8 8 8 8 8 8 8 8 8 8 8 8 7 7 7 7 7 7 7 7 7 8
6 6 6 6 6 6 6 6 6 6 6 6 7 7 7 7 7 7 7 7 7 7 7 7 7 7 7 7 7 7 7 8 8 8 8 8 8 8 8 8 8 8 8 8 8 8 8 8 8 8 8 8 8 8 8 7 7 7 7 7 7 7 7 7 7 7 7 7 7
6 6 6 5 5 5 5 5 5 6 6 6 6 6 6 6 6 6 6 6 7 7 7 7 7 7 7 7 7 7 7 7 7 7 7 8 8 8 8 8 8 8 8 8 8 8 8 8 8 8 8 7 7 7 7 7 7 7 7 7 7 7 7 7 7 7 7 7 7
5 5 5 5 5 5 5 5 5 5 5 5 5 5 5 5 5 5 5 5 6 6 6 6 6 6 6 7 7 7 7 7 7 7 7 7 7 7 7 7 7 7 7 7 7 7 7 7 7 7 7 7 7 7 7 7 7 7 7 7 7 7 7 7 7 7 7 7 7
5 5 5 4 4 4 4 4 4 4 4 4 4 4 4 4 4 5 5 5 5 5 5 5 5 5 6 6 6 6 6 6 6 6 6 6 7 7 7 7 7 7 7 7 7 7 7 7 7 7 7 7 7 7 7 7 7 7 7 7 7 7 7 7 7 7 7 7 7
4 4 4 4 4 4 4 4 4 4 4 4 4 4 4 4 4 4 4 4 4 4 4 4 5 5 5 5 5 5 5 5 5 6 6 6 6 6 6 6 6 7 7 7 7 7 7 7 7 6 6 6 6 6 6 6 6 6 6 6 6 6 6 6 7 7 7 7 7
4 4 4 4 3 3 3 3 3 3 3 3 3 3 3 3 4 4 4 4 4 4 4 4 4 4 4 4 4 4 5 5 5 5 5 5 5 5 6 6 6 6 6 6 6 6 6 6 6 6 6 6 6 6 6 6 6 6 6 6 6 6 6 6 6 6 6 6 7
3 3 3 3 3 3 3 3 3 3 3 3 3 3 3 3 3 3 3 3 3 4 4 4 4 4 4 4 4 4 4 4 4 4 5 5 5 5 5 5 5 5 6 6 6 6 6 6 6 6 6 6 6 6 6 6 6 6 6 6 6 6 6 6 6 6 6 6 6
3 3 3 3 3 3 2 2 2 2 2 2 3 3 3 3 3 3 3 3 3 3 3 3 3 3 4 4 4 4 4 4 4 4 4 4 4 5 5 5 5 5 5 5 5 5 5 5 5 5 5 5 5 5 5 5 5 6 6 6 6 5 5 5 5 6 6 6 6
2 2 2 2 2 2 2 2 2 2 2 2 2 2 2 3 3 3 3 3 3 3 3 3 3 3 3 3 4 4 4 4 4 4 4 4 4 4 4 4 4 5 5 5 5 5 5 5 5 5 5 5 5 5 5 5 5 5 5 5 5 5 5 5 5 5 5 6 6
2 2 2 2 2 2 2 2 2 2 2 2 2 2 2 2 3 3 3 3 3 3 3 3 3 3 3 3 3 3 4 4 4 4 4 4 4 4 4 4 4 4 4 4 5 5 5 5 5 5 5 5 5 5 5 5 5 5 5 5 5 5 5 5 5 5 5 5 5
2 2 2 2 2 2 2 2 2 2 2 2 2 2 2 2 2 3 3 3 3 3 3 3 3 3 3 3 3 3 3 3 3 3 4 4 4 4 4 4 4 4 4 4 4 4 5 5 5 5 5 5 5 5 5 5 5 5 5 5 5 5 5 5 5 5 5 5 5
1 1 1 1 1 1 1 2 2 2 2 2 2 2 2 2 2 2 2 2 2 2 2 3 3 3 3 3 3 3 3 3 3 3 3 3 3 3 4 4 4 4 4 4 4 4 4 4 4 4 5 5 4 4 4 4 4 4 4 4 4 5 5 5 5 5 5 5 5
1 1 1 1 1 1 1 1 1 1 1 1 1 2 2 2 2 2 2 2 2 2 2 2 2 3 3 3 3 3 3 3 3 3 3 3 3 3 3 3 4 4 4 4 4 4 4 4 4 4 4 4 4 4 4 4 4 4 4 4 4 4 5 5 5 4 4 4 4
1 1 1 1 1 1 1 1 1 1 1 1 1 1 1 2 2 2 2 2 2 2 2 2 2 2 2 2 2 3 3 3 3 3 3 3 3 3 3 3 4 4 4 4 4 4 4 4 4 4 4 4 4 4 3 4 4 4 4 4 4 4 4 4 4 4 4 4 4
1 1 1 1 1 1 1 1 1 1 1 1 1 1 1 1 1 1 1 1 2 2 2 2 2 2 2 2 2 2 2 2 3 3 3 3 3 3 3 3 3 4 4 4 4 4 4 4 4 4 4 4 3 3 3 3 3 3 3 3 3 3 3 3 4 4 4 4 4
1 1 1 1 1 1 1 1 1 0 1 1 1 1 1 1 1 1 1 1 1 1 1 2 2 2 2 2 2 2 2 2 2 2 2 3 3 3 3 3 3 3 3 4 4 4 4 4 4 4 4 3 3 3 3 3 3 3 3 3 3 3 3 3 3 3 3 3 4
0 0 0 0 0 0 0 0 0 0 0 0 0 0 0 0 1 1 1 1 1 1 1 1 1 1 2 2 2 2 2 2 2 2 2 2 3 3 3 3 3 3 3 3 3 3 3 3 3 3 3 3 3 3 3 2 2 2 2 2 2 2 2 2 3 3 3 3 4
0 0 0 0 0 -0 -0 -0 -0 -0 0 0 0 0 0 0 0 0 0 0 0 0 1 1 1 1 1 1 1 2 2 2 2 2 2 2 2 3 3 3 3 3 3 3 3 3 3 3 3 3 3 3 3 2 2 2 2 2 2 2 2 2 2 2 2 2 3 3 4
0 -0 -0 -0 -0 -0 -0 -0 -0 -0 -0 -0 -0 -0 -0 -0 -0 -0 -0 0 0 0 0 0 0 1 1 1 1 1 2 2 2 2 2 2 2 3 3 3 3 3 3 3 3 3 3 3 3 3 3 3 2 2 2 1 2 2 2 2 2 2 1 2 2 2 3 3 3
Height
1468 1467 1467 1466 1465 1465 1464 1463 1462 1462 1461 1460 1459 1458 1457 1457 1456 1455 1454 1453 1453 1452 1451 1451 1450 1449 1448 1448 1447 1447 1446 1446 1445 1444 1443 1442 1441 1440 1438 1437 1436 1435 1434 1433 1433 1432 1432 1431 1431 1430 1429 1428 1427 1427 1425 1424 1424 1423 1422 1421 1421 1420 1419 1418 1417 1417 1416 1415 1414
1468 1467 1467 1466 1465 1464 1463 1463 1462 1462 1461 1460 1459 1458 1457 1457 1456 1455 1454 1453 1452 1452 1451 1450 1449 1448 1447 1447 1446 1446 1445 1444 1443 1443 1442 1441 1440 1440 1439 1437 1436 1435 1434 1432 1432 1431 1430 1429 1429 1428 1427 1426 1426 1425 1423 1422 1422 1421 1420 1419 1418 1418 1417 1417 1416 1415 1414 1413 1413
1467 1467 1466 1465 1464 1463 1463 1462 1461 1461 1460 1459 1458 1458 1457 1456 1455 1454 1453 1453 1452 1451 1450 1449 1448 1448 1447 1446 1445 1444 1444 1443 1442 1441 1440 1440 1439 1438 1438 1437 1436 1435 1433 1432 1431 1430 1429 1428 1427 1426 1425 1424 1423 1423 1422 1421 1420 1419 1418 1417 1417 1416 1416 1414 1414 1413 1412 1412 1411
1467 1466 1465 1464 1464 1463 1462 1461 1461 1460 1459 1458 1457 1457 1456 1455 1454 1453 1453 1452 1451 1450 1450 1449 1448 1447 1446 1445 1444 1443 1442 1442 1441 1440 1439 1438 1437 1437 1436 1435 1434 1434 1432 1431 1430 1429 1428 1427 1426 1425 1424 1422 1422 1421 1420 1419 1418 1417 1417 1415 1415 1414 1413 1412 1412 1411 1411 1410 1409
1466 1465 1464 1464 1463 1462 1462 1461 1460 1459 1458 1457 1456 1456 1455 1454 1453 1452 1452 1451 1450 1449 1448 1448 1447 1446 1445 1444 1443 1442 1441 1440 1439 1438 1437 1436 1435 1434 1434 1433 1432 1432 1431 1430 1428 1427 1426 1425 1424 1423 1422 1422 1421 1419 1418 1418 1417 1416 1414 1413 1412 1412 1411 1410 1409 1409 1408 1407 1407
1465 1465 1464 1463 1462 1462 1461 1460 1459 1458 1457 1456 1456 1455 1454 1453 1452 1452 1451 1450 1449 1448 1447 1447 1446 1445 1444 1443 1442 1441 1440 1439 1438 1437 1436 1435 1434 1433 1432 1431 1430 1429 1429 1428 1427 1426 1425 1423 1422 1421 1421 1420 1419 1418 1417 1417 1415 1414 1412 1411 1410 1409 1408 1407 1407 1406 1406 1405 1404
1465 1464 1463 1462 1462 1461 1460 1459 1458 1457 1457 1456 1455 1455 1454 1453 1452 1451 1450 1449 1448 1447 1447 1446 1445 1444 1442 1442 1441 1439 1438 1437 1436 1435 1434 1433 1432 1431 1430 1429 1428 1427 1427 1426 1425 1424 1423 1422 1421 1420 1419 1418 1417 1416 1415 1414 1413 1411 1410 1409 1408 1407 1406 1405 1404 1403 1403 1402 1401
1465 1464 1463 1462 1461 1460 1459 1458 1457 1457 1456 1455 1455 1454 1453 1452 1452 1450 1449 1448 1447 1447 1446 1445 1444 1443 1442 1440 1439 1438 1437 1436 1435 1434 1433 1432 1431 1429 1428 1427 1426 1425 1424 1423 1422 1422 1421 1420 1419 1418 1417 1416 1415 1414 1412 1412 1410 1409 1408 1407 1405 1405 1404 1402 1402 1401 1400 1399 1398
1465 1464 1463 1462 1461 1460 1459 1458 1457 1456 1456 1455 1454 1454 1453 1452 1451 1449 1449 1448 1447 1446 1445 1444 1442 1442 1440 1439 1438 1437 1436 1434 1433 1432 1431 1430 1429 1428 1427 1426 1425 1423 1422 1421 1420 1419 1418 1417 1417 1416 1415 1414 1412 1411 1410 1409 1408 1407 1405 1404 1403 1402 1401 1400 1399 1398 1397 1396 1395
1464 1463 1463 1462 1461 1459 1458 1457 1456 1456 1455 1454 1453 1452 1452 1451 1449 1448 1448 1447 1446 1445 1443 1442 1441 1440 1439 1438 1437 1435 1434 1433 1432 1430 1429 1428 1427 1426 1425 1424 1422 1422 1420 1419 1418 1417 1416 1415 1414 1413 1412 1412 1411 1409 1408 1407 1406 1404 1403 1402 1401 1399 1398 1397 1397 1395 1394 1393 1392
1463 1462 1462 1461 1460 1459 1457 1457 1456 1455 1454 1453 1452 1451 1450 1449 1448 1447 1447 1445 1444 1443 1442 1441 1440 1439 1437 1436 1435 1434 1433 1432 1430 1429 1427 1426 1425 1424 1422 1422 1420 1419 1418 1417 1416 1415 1414 1413 1412 1411 1409 1409 1408 1407 1406 1405 1404 1402 1400 1399 1398 1397 1396 1395 1394 1393 1392 1391 1389
1462 1462 1461 1460 1459 1458 1457 1456 1455 1454 1453 1452 1451 1450 1449 1448 1447 1446 1445 1444 1443 1442 1440 1439 1438 1437 1436 1435 1434 1432 1431 1430 1428 1427 1426 1424 1423 1422 1421 1419 1418 1417 1415 1414 1413 1412 1412 1410 1409 1408 1407 1406 1405 1404 1403 1402 1401 1400 1398 1397 1396 1395 1393 1392 1392 1391 1390 1389 1387
1462 1461 1460 1459 1458 1457 1456 1455 1454 1453 1452 1451 1450 1449 1447 1447 1446 1445 1444 1442 1441 1440 1439 1438 1437 1436 1435 1433 1432 1431 1430 1428 1427 1426 1424 1423 1421 1420 1419 1417 1416 1415 1413 1412 1411 1410 1408 1407 1406 1405 1404 1403 1402 1401 1400 1399 1398 1397 1395 1394 1393 1392 1391 1390 1389 1388 1387 1387 1385
1461 1460 1459 1458 1457 1456 1455 1453 1452 1452 1451 1450 1448 1447 1447 1446 1445 1443 1442 1441 1440 1439 1438 1437 1435 1434 1433 1432 1431 1429 1428 1427 1425 1424 1422 1421 1420 1418 1417 1416 1414 1413 1411 1410 1409 1407 1406 1405 1403 1402 1401 1400 1399 1398 1397 1396 1395 1394 1392 1391 1390 1389 1388 1387 1386 1385 1385 1384 1382
1460 1459 1458 1457 1456 1455 1454 1452 1452 1451 1450 1448 1447 1446 1445 1444 1443 1442 1441 1440 1439 1437 1436 1435 1434 1432 1432 1430 1429 1428 1427 1425 1424 1422 1421 1419 1418 1417 1415 1414 1412 1411 1409 1408 1406 1405 1404 1402 1401 1400 1398 1397 1396 1395 1394 1393 1392 1391 1390 1389 1387 1387 1385 1384 1384 1383 1382 1381 1379
1459 1458 1457 1456 1455 1454 1453 1452 1451 1449 1448 1447 1446 1445 1444 1443 1442 1441 1440 1438 1437 1436 1435 1433 1432 1431 1429 1428 1427 1426 1424 1423 1422 1420 1419 1417 1416 1415 1413 1412 1410 1409 1407 1406 1404 1402 1401 1400 1399 1397 1396 1395 1393 1392 1391 1390 1389 1388 1387 1386 1385 1384 1383 1382 1381 1380 1379 1378 1377
1458 1457 1456 1455 1454 1453 1452 1451 1450 1448 1447 1446 1445 1444 1443 1442 1440 1439 1438 1437 1436 1434 1433 1432 1430 1429 1427 1426 1425 1424 1422 1421 1420 1418 1417 1415 1414 1412 1411 1410 1408 1407 1405 1403 1402 1400 1399 1397 1396 1395 1394 1392 1391 1390 1388 1387 1386 1385 1384 1383 1382 1381 1380 1379 1378 1377 1377 1375 1374
1457 1456 1455 1454 1453 1452 1451 1450 1448 1447 1446 1445 1444 1442 1442 1440 1439 1438 1437 1435 1434 1432 1431 1429 1428 1427 1426 1424 1423 1422 1421 1419 1417 1416 1415 1413 1412 1410 1409 1407 1406 1405 1403 1402 1400 1398 1397 1395 1394 1393 1392 1390 1389 1388 1387 1385 1384 1383 1382 1381 1380 1379 1378 1377 1376 1375 1374 1372 1371
1456 1455 1454 1453 1452 1451 1449 1448 1447 1446 1445 1444 1442 1441 1440 1439 1437 1436 1435 1433 1432 1431 1429 1428 1426 1425 1424 1422 1421 1420 1418 1417 1415 1414 1412 1411 1410 1408 1407 1405 1404 1402 1401 1399 1398 1396 1395 1393 1392 1391 1389 1388 1387 1386 1385 1383 1382 1381 1380 1379 1378 1377 1376 1375 1374 1372 1372 1370 1369
1455 1454 1453 1452 1451 1449 1448 1447 1446 1445 1443 1442 1441 1440 1438 1437 1436 1435 1433 1432 1431 1429 1428 1427 1425 1423 1422 1421 1419 1418 1416 1415 1413 1412 1410 1409 1407 1406 1405 1403 1401 1400 1398 1397 1395 1394 1392 1391 1390 1389 1388 1387 1385 1384 1382 1381 1380 1379 1378 1377 1375 1374 1373 1372 1371 1370 1369 1367 1366
1453 1452 1452 1451 1449 1448 1447 1446 1445 1443 1442 1441 1440 1438 1437 1436 1435 1433 1432 1431 1429 1428 1427 1425 1423 1422 1421 1419 1417 1416 1414 1413 1412 1410 1408 1407 1405 1404 1402 1401 1399 1398 1396 1395 1393 1392 1391 1390 1388 1387 1386 1385 1383 1382 1380 1379 1377 1376 1375 1374 1373 1372 1371 1369 1368 1367 1366 1364 1363
1452 1452 1450 1449 1448 1447 1446 1445 1443 1442 1441 1440 1438 1437 1436 1434 1433 1432 1431 1429 1428 1427 1425 1424 1422 1421 1419 1417 1416 1414 1412 1411 1410 1408 1407 1405 1403 1402 1400 1399 1397 1396 1394 1393 1391 1390 1389 1388 1387 1385 1384 1382 1381 1380 1378 1377 1375 1373 1372 1371 1370 1368 1367 1366 1365 1364 1362 1361 1360
1452 1451 1450 1448 1447 1446 1444 1443 1442 1441 1440 1438 1437 1436 1434 1433 1432 1431 1429 1428 1427 1425 1424 1422 1421 1419 1418 1416 1414 1413 1411 1409 1407 1406 1405 1403 1402 1400 1398 1397 1395 1394 1392 1391 1390 1388 1387 1386 1385 1383 1382 1381 1379 1377 1376 1374 1373 1371 1369 1368 1367 1365 1364 1362 1362 1360 1359 1357 1356
1451 1450 1448 1447 1446 1445 1443 1442 1441 1440 1438 1437 1436 1434 1433 1432 1430 1429 1427 1426 1425 1424 1422 1421 1419 1418 1416 1414 1413 1411 1409 1407 1406 1404 1402 1401 1400 1398 1396 1395 1393 1392 1391 1389 1388 1387 1386 1385 1383 1382 1380 1378 1377 1375 1374 1372 1370 1369 1367 1365 1363 1362 1360 1359 1358 1357 1355 1354 1352
1450 1449 1447 1446 1445 1443 1442 1441 1440 1439 1437 1436 1435 1433 1432 1431 1429 1427 1426 1425 1423 1422 1421 1419 1418 1416 1414 1412 1411 1409 1407 1406 1404 1402 1400 1399 1397 1396 1394 1393 1392 1390 1389 1388 1387 1386 1385 1383 1382 1380 1378 1377 1375 1373 1371 1370 1368 1366 1365 1363 1361 1359 1357 1355 1354 1353 1352 1350 1349
1449 1447 1446 1445 1444 1442 1441 1440 1439 1437 1436 1435 1433 1432 1431 1429 1428 1426 1425 1423 1422 1421 1419 1418 1416 1414 1412 1411 1409 1407 1406 1404 1402 1401 1399 1397 1395 1394 1392 1391 1390 1388 1387 1386 1385 1384 1382 1382 1380 1379 1377 1375 1373 1371 1369 1367 1365 1364 1362 1360 1359 1357 1355 1352 1351 1349 1348 1347 1346
1448 1446 1445 1444 1443 1442 1440 1439 1438 1436 1435 1433 1432 1431 1429 1428 1427 1425 1424 1422 1421 1419 1418 1416 1414 1412 1411 1409 1407 1405 1404 1402 1400 1399 1397 1395 1394 1392 1391 1389 1388 1387 1385 1384 1383 1382 1380 1379 1378 1377 1375 1373 1371 1369 1367 1365 1363 1361 1360 1358 1356 1354 1352 1350 1348 1347 1345 1343 1342
1447 1445 1444 1443 1442 1440 1439 1438 1436 1435 1433 1432 1431 1429 1428 1427 1425 1424 1422 1421 1419 1417 1416 1414 1412 1411 1409 1407 1406 1404 1402 1401 1399 1397 1396 1394 1392 1391 1389 1388 1386 1385 1383 1382 1381 1379 1378 1377 1376 1374 1373 1371 1369 1367 1365 1363 1361 1359 1357 1355 1353 1352 1350 1348 1346 1344 1342 1340 1339
1445 1444 1443 1442 1440 1439 1437 1436 1435 1433 1432 1431 1429 1428 1427 1425 1423 1422 1421 1419 1417 1416 1414 1412 1411 1409 1407 1406 1404 1402 1401 1399 1397 1396 1394 1392 1391 1389 1388 1386 1385 1383 1382 1380 1379 1377 1376 1375 1373 1372 1371 1369 1367 1365 1363 1361 1359 1357 1355 1353 1351 1349 1347 1346 1344 1342 1340 1338 1336
1445 1443 1442 1440 1439 1437 1436 1435 1434 1432 1431 1429 1428 1426 1425 1423 1422 1420 1419 1417 1415 1414 1412 1411 1409 1407 1406 1404 1402 1401 1399 1397 1396 1395 1393 1391 1389 1388 1386 1385 1383 1381 1380 1379 1377 1376 1375 1373 1372 1370 1369 1367 1365 1363 1361 1359 1357 1355 1352 1350 1348 1347 1345 1343 1342 1340 1338 1336 1334
1443 1442 1440 1439 1437 1436 1435 1434 1432 1431 1429 1428 1426 1425 1423 1422 1420 1418 1417 1415 1413 1412 1410 1409 1407 1406 1404 1402 1401 1399 1397 1396 1394 1393 1391 1389 1388 1386 1384 1383 1381 1380 1378 1377 1376 1375 1373 1372 1370 1368 1367 1365 1363 1361 1359 1357 1355 1352 1350 1348 1346 1345 1343 1341 1339 1337 1336 1334 1332
1442 1441 1439 1437 1436 1435 1433 1432 1431 1429 1428 1426 1425 1423 1422 1420 1418 1417 1415 1413 1412 1410 1408 1407 1405 1403 1402 1400 1399 1397 1396 1394 1393 1391 1389 1388 1386 1384 1382 1381 1379 1378 1377 1375 1374 1373 1372 1370 1368 1367 1365 1363 1361 1359 1357 1354 1352 1350 1348 1346 1344 1343 1341 1339 1337 1335 1333 1332 1330
1441 1439 1437 1436 1435 1433 1432 1430 1429 1427 1426 1424 1423 1422 1420 1418 1416 1415 1413 1412 1410 1408 1407 1405 1403 1402 1400 1398 1397 1395 1394 1392 1391 1389 1388 1386 1384 1382 1381 1379 1378 1376 1375 1374 1373 1371 1370 1368 1366 1364 1362 1361 1358 1356 1354 1352 1350 1348 1346 1344 1342 1341 1339 1337 1335 1333 1332 1330 1328
1439 1437 1436 1435 1433 1432 1430 1429 1427 1426 1424 1422 1421 1419 1418 1416 1414 1412 1411 1409 1408 1407 1405 1404 1402 1401 1399 1397 1396 1394 1392 1390 1389 1387 1386 1384 1382 1381 1379 1377 1376 1375 1373 1372 1371 1369 1368 1366 1364 1362 1360 1358 1356 1353 1351 1349 1347 1346 1344 1342 1340 1338 1337 1335 1333 1331 1329 1327 1326
1437 1436 1434 1433 1432 1430 1428 1427 1425 1424 1422 1420 1419 1417 1416 1414 1412 1411 1409 1407 1406 1405 1403 1402 1401 1399 1397 1396 1394 1392 1390 1388 1387 1385 1384 1382 1381 1379 1377 1376 1374 1373 1372 1371 1369 1367 1366 1364 1362 1360 1358 1356 1353 1351 1349 1347 1345 1343 1341 1339 1337 1335 1334 1332 1330 1328 1327 1326 1324
1436 1435 1433 1431 1430 1428 1427 1425 1423 1422 1420 1418 1417 1415 1413 1412 1410 1409 1407 1406 1404 1402 1401 1400 1398 1397 1395 1393 1392 1390 1388 1387 1385 1383 1382 1380 1379 1377 1375 1373 1372 1372 1370 1369 1367 1366 1364 1362 1360 1358 1356 1354 1352 1349 1347 1345 1343 1341 1339 1337 1335 1332 1331 1329 1328 1326 1325 1323 1322
1435 1433 1431 1429 1428 1426 1424 1423 1421 1419 1418 1416 1414 1413 1411 1410 1408 1407 1406 1404 1402 1400 1399 1397 1396 1394 1392 1391 1389 1387 1386 1385 1383 1381 1379 1378 1377 1375 1373 1371 1370 1369 1368 1367 1365 1364 1362 1361 1359 1357 1354 1352 1350 1347 1345 1343 1341 1339 1337 1334 1332 1330 1329 1327 1326 1324 1323 1321 1320
1433 1432 1430 1428 1426 1424 1422 1421 1419 1417 1416 1414 1412 1411 1409 1408 1406 1405 1404 1402 1401 1398 1397 1395 1393 1392 1390 1388 1387 1385 1384 1383 1381 1379 1377 1376 1375 1373 1372 1369 1368 1367 1366 1365 1364 1362 1361 1359 1357 1355 1353 1351 1348 1346 1344 1341 1339 1337 1335 1332 1330 1328 1327 1326 1324 1322 1320 1318 1317
1431 1430 1428 1426 1424 1422 1421 1419 1417 1416 1414 1412 1410 1409 1407 1406 1404 1403 1402 1401 1399 1397 1395 1393 1391 1390 1388 1387 1385 1383 1382 1380 1379 1378 1376 1374 1372 1372 1370 1368 1366 1365 1364 1363 1362 1360 1359 1357 1356 1353 1352 1349 1347 1345 1342 1340 1338 1335 1333 1331 1329 1327 1325 1324 1322 1320 1317 1316 1314
1430 1428 1426 1424 1423 1421 1419 1417 1415 1414 1412 1411 1409 1407 1406 1404 1403 1402 1400 1399 1397 1395 1393 1391 1389 1387 1386 1385 1383 1381 1379 1377 1377 1376 1374 1372 1371 1370 1368 1367 1365 1363 1362 1362 1360 1359 1357 1356 1354 1352 1350 1348 1346 1344 1342 1339 1337 1334 1332 1330 1328 1325 1323 1321 1319 1317 1315 1313 1312
1427 1426 1424 1422 1421 1419 1417 1415 1413 1412 1411 1409 1407 1406 1404 1403 1401 1400 1398 1397 1395 1393 1392 1389 1387 1386 1384 1383 1381 1379 1377 1375 1374 1373 1372 1370 1369 1368 1367 1365 1363 1362 1361 1360 1358 1357 1356 1354 1352 1351 1349 1347 1345 1342 1341 1338 1336 1333 1331 1329 1327 1324 1322 1318 1316 1315 1313 1311 1309
Wind_Speed
20 20 20 21 21 22 22 22 23 23 23 22 22 21 20 20 20 20 19 19 19 19 19 19 19 20 20 20 19 20 20 20 21 22 23 24 26 27 28 29 30 30 31 31 31 32 32 33 33 34 35 36 37 39 40 41 41 41 41 41 41 42 42 43 45 46 47 48 48
20 20 20 21 21 22 22 23 23 23 23 23 22 22 21 21 20 20 20 19 19 18 18 18 19 19 19 19 19 19 20 20 21 21 22 23 24 25 26 27 29 30 31 31 31 31 31 32 32 33 34 35 36 38 39 40 41 41 41 41 42 41 41 41 43 44 46 46 47
21 21 21 21 22 22 23 24 24 24 24 24 24 23 22 22 21 21 20 20 19 19 18 18 18 18 18 19 19 19 19 20 20 21 22 22 23 23 24 25 26 28 29 30 30 30 31 31 31 32 32 34 35 36 38 39 40 40 41 42 42 41 41 41 42 42 43 44 45
22 22 22 23 23 24 24 24 25 25 25 25 25 24 23 23 22 22 21 21 20 19 18 18 18 18 18 18 18 18 19 19 19 20 21 22 22 23 24 24 25 26 28 29 30 30 30 30 30 31 31 32 33 35 37 38 39 40 41 42 42 42 42 43 43 43 43 44 45
22 23 23 23 24 24 24 25 25 25 25 25 25 24 23 22 22 22 22 21 21 20 20 19 19 19 19 19 19 19 19 19 19 19 20 21 22 23 23 24 25 26 27 28 29 30 30 31 31 31 32 32 32 33 34 37 38 39 41 42 42 43 43 44 44 44 45 45 46
22 23 23 24 24 24 25 25 25 25 25 24 23 22 21 20 21 21 21 21 21 21 20 20 20 20 20 20 20 20 20 20 20 20 20 21 21 22 23 24 24 25 26 27 28 29 30 31 31 32 32 33 33 34 35 36 37 38 39 40 41 43 43 44 45 45 45 46 46
21 22 23 23 24 24 25 25 25 25 24 23 21 20 19 19 19 20 20 21 20 20 20 20 20 20 21 21 22 23 22 22 21 21 21 21 21 21 22 23 23 24 25 25 26 27 27 29 30 31 32 33 34 35 36 37 37 38 38 40 41 43 44 45 45 46 46 47 47
18 19 20 21 22 23 23 24 24 23 22 20 19 18 17 18 19 19 20 20 19 20 20 20 20 21 22 23 24 25 24 24 24 23 23 23 23 22 22 22 22 23 23 24 25 25 25 26 28 29 30 31 32 34 36 37 37 38 39 40 42 43 44 45 45 45 46 46 47
15 16 17 18 19 20 21 22 22 22 20 19 17 16 16 17 18 19 20 20 19 19 20 20 21 22 24 25 26 26 26 26 26 26 27 27 27 26 25 24 23 23 23 23 23 24 25 25 26 27 28 29 30 31 33 34 35 36 38 39 40 41 43 44 45 45 45 46 47
15 14 14 15 17 18 20 22 22 22 20 19 17 16 17 18 19 20 20 20 20 20 21 22 24 25 26 26 26 26 26 26 27 28 29 30 30 29 29 28 27 26 25 24 24 24 24 25 25 26 27 28 29 30 30 31 33 35 36 37 39 39 40 41 42 43 44 45 46
16 14 13 14 16 18 20 22 23 23 22 20 19 19 19 20 21 21 21 21 21 22 23 24 25 26 26 26 26 26 26 27 28 29 29 30 30 31 31 31 31 31 30 30 29 28 27 26 26 26 26 27 28 29 30 31 32 34 36 37 37 38 39 39 40 41 42 43 44
16 15 14 15 17 19 21 23 24 24 23 22 22 22 22 23 22 22 22 22 23 24 25 25 25 25 25 25 26 26 27 28 28 29 29 29 30 30 31 32 33 33 34 34 33 32 31 30 28 28 27 27 27 28 29 30 31 33 34 36 36 37 38 39 39 40 41 42 42
17 16 16 17 19 21 23 24 24 24 24 24 24 24 24 23 23 22 22 22 23 24 24 24 24 24 25 26 26 27 28 28 28 29 29 30 30 31 31 32 32 33 34 34 34 34 33 32 31 30 30 29 29 29 29 29 30 31 33 34 35 36 38 38 39 39 39 40 41
19 18 18 19 21 23 24 25 25 25 25 25 25 25 24 23 22 22 22 23 23 23 24 24 24 25 26 26 27 27 28 28 28 29 29 30 30 31 32 32 33 33 34 34 34 34 33 33 33 32 32 32 32 31 30 30 29 30 31 32 33 34 35 37 37 37 37 38 39
20 20 20 21 23 24 25 25 26 26 26 26 26 25 25 23 23 22 23 23 24 24 24 25 26 27 27 27 27 27 27 28 28 29 30 30 31 31 32 33 33 34 34 34 34 34 33 33 33 33 33 33 34 33 32 31 30 30 29 30 31 32 33 34 35 35 36 37 38
21 21 22 23 24 25 25 26 26 26 27 27 27 26 25 24 24 24 24 25 25 25 26 27 28 29 29 28 28 28 28 29 29 30 30 31 31 32 32 33 33 34 34 34 34 34 34 33 33 33 33 33 34 34 33 32 32 31 30 30 30 30 31 31 32 33 34 35 36
21 22 22 23 24 25 26 26 27 27 27 28 27 27 26 26 26 26 26 27 27 28 29 30 31 31 31 30 29 29 29 30 30 31 31 32 32 32 32 32 33 33 33 33 34 34 34 33 33 33 33 33 33 33 33 33 32 32 31 31 30 30 30 30 30 31 32 33 34
22 22 23 24 25 26 26 27 27 28 28 28 28 28 28 28 28 28 29 29 29 30 31 32 32 32 32 31 31 31 31 31 32 32 32 33 33 33 33 32 32 32 32 32 32 33 33 33 33 32 32 32 32 32 32 32 32 32 31 31 31 31 31 30 30 30 30 31 31
23 23 24 25 26 27 27 28 28 28 29 29 29 29 30 30 30 31 31 32 32 32 33 34 34 34 33 33 33 33 33 33 34 34 34 33 33 33 33 32 32 32 32 32 32 32 32 31 31 31 31 30 30 30 30 31 31 31 31 31 31 31 31 31 31 31 31 31 31
23 24 24 25 26 27 28 28 29 29 29 30 30 31 31 32 32 33 33 34 34 35 35 35 35 35 34 34 35 35 35 35 35 35 34 34 33 33 32 32 32 32 32 32 32 31 31 30 30 29 29 29 29 29 30 30 30 30 31 31 31 32 32 32 32 32 33 33 33
23 24 24 25 26 27 28 29 29 30 30 31 31 32 33 33 34 34 35 36 36 37 37 36 36 35 35 36 36 37 37 37 36 35 34 34 33 32 32 32 32 32 31 31 31 31 30 30 29 29 28 28 29 29 30 30 31 31 31 32 32 33 33 34 34 35 35 35 35
22 23 24 25 26 27 28 29 30 30 31 32 32 32 33 34 34 35 36 36 37 37 37 37 37 36 36 37 37 38 38 37 36 35 34 33 32 32 31 31 30 30 30 30 29 29 29 29 29 29 29 29 29 30 31 31 32 32 32 33 34 34 35 35 36 36 37 37 37
22 22 23 24 24 26 27 28 29 30 31 31 32 32 33 33 34 35 35 36 36 37 37 37 36 37 37 37 37 37 37 36 35 34 33 32 31 31 30 30 29 29 28 28 28 28 28 29 29 29 30 30 31 31 32 32 32 32 33 34 35 36 37 37 37 38 38 38 38
22 22 22 23 24 25 26 28 29 29 30 30 30 31 31 32 33 34 34 34 35 35 35 35 35 36 37 37 37 36 35 34 34 33 32 31 30 30 29 29 28 28 27 27 27 27 27 28 29 30 31 31 32 32 32 32 32 33 34 35 36 37 38 39 39 39 39 39 39
22 22 23 23 24 26 27 28 28 29 29 29 29 29 30 30 31 31 32 32 32 32 32 33 34 34 35 35 34 33 33 32 31 31 30 30 29 29 28 28 28 27 27 27 27 27 27 28 29 30 32 32 33 33 33 33 33 34 35 36 37 38 39 40 40 40 40 40 39
22 22 23 24 26 27 28 28 28 28 28 28 28 28 28 29 29 29 29 29 29 29 30 31 32 32 32 32 31 31 30 29 29 29 29 29 28 28 27 27 27 27 27 27 28 28 29 29 30 31 32 32 33 33 34 34 34 35 36 37 37 38 38 39 40 41 41 40 40
22 23 24 26 27 28 28 28 28 28 28 28 28 28 28 28 28 28 28 28 28 29 29 30 30 30 30 29 29 28 28 27 27 27 27 27 27 27 27 27 27 27 28 28 29 30 30 31 31 31 32 32 33 34 34 35 36 37 37 37 37 37 37 38 39 40 40 40 40
23 24 26 27 28 28 28 28 27 27 27 27 27 28 28 28 28 28 28 28 28 29 30 30 30 29 28 28 27 27 27 26 26 26 26 26 26 27 27 27 27 27 28 29 29 30 31 31 31 32 32 33 33 34 35 36 37 37 37 37 37 37 37 38 39 39 39 39 40
24 26 27 28 28 28 28 27 27 27 27 27 27 28 28 28 28 28 28 28 29 29 30 29 29 28 28 28 27 27 27 26 26 26 26 26 26 27 27 27 28 28 29 29 30 30 31 31 32 32 33 33 34 35 35 36 37 37 36 36 36 37 37 38 38 38 39 40 39
26 27 28 28 28 28 27 27 27 27 27 27 28 28 28 28 28 28 28 29 29 29 29 28 28 28 28 28 27 27 27 26 26 26 26 26 27 27 27 28 29 29 29 30 30 30 30 31 32 33 34 34 34 35 35 36 36 36 36 36 36 36 37 37 38 39 39 39 38
28 29 29 29 28 28 28 28 28 28 28 28 28 29 29 28 29 29 29 29 29 28 27 27 28 28 28 27 27 27 27 27 26 26 26 27 27 28 28 29 29 30 30 30 30 30 30 31 32 33 33 34 34 34 35 35 34 34 34 35 35 35 36 37 38 39 38 38 37
29 29 29 29 29 29 29 29 29 29 29 29 29 29 29 29 29 29 29 28 28 27 27 27 28 28 28 28 28 27 27 27 27 27 27 27 28 29 30 30 30 30 30 30 30 30 30 31 32 32 33 33 33 34 34 33 33 33 33 34 35 36 37 38 38 38 37 36 35
30 30 30 30 30 30 31 30 30 30 30 30 30 30 31 31 31 30 29 28 27 27 27 28 28 28 28 28 28 29 29 28 28 28 28 29 29 30 31 31 31 30 30 30 30 30 30 31 31 31 32 32 33 33 33 32 32 32 33 34 35 37 38 38 38 37 36 35 34
30 30 31 31 32 32 32 32 32 32 32 32 32 32 32 32 32 31 30 28 27 27 27 27 27 28 28 28 29 29 29 29 29 29 30 30 31 31 31 31 31 30 30 30 30 30 30 30 30 30 31 32 32 32 32 32 32 33 34 35 37 38 38 37 36 35 34 34 33
31 31 32 33 33 34 34 34 34 33 33 33 33 34 33 33 32 31 30 29 28 27 27 27 27 28 28 29 29 29 30 30 31 31 31 31 32 32 32 32 31 31 30 30 30 30 29 29 29 30 31 31 32 32 32 33 33 35 36 37 38 38 38 36 35 34 34 34 33
32 32 33 34 34 35 35 35 35 35 35 35 35 35 35 34 33 31 30 29 29 28 28 28 29 30 30 30 30 30 30 31 31 32 32 32 32 32 32 32 31 31 30 30 30 29 28 28 29 29 30 31 32 33 33 34 35 36 37 38 38 38 36 35 34 34 34 34 34
33 33 34 35 35 36 36 36 36 36 36 36 36 36 35 34 33 32 30 29 29 30 30 31 31 32 32 31 31 31 31 31 32 33 33 33 32 32 32 32 32 31 30 30 29 28 28 28 28 29 30 31 32 33 34 36 36 37 37 37 37 36 34 34 34 34 35 35 36
34 35 35 36 36 36 37 37 36 36 37 37 37 36 35 34 34 32 31 30 30 31 32 33 33 33 33 32 32 32 32 32 33 33 33 33 32 32 32 32 32 31 30 29 29 28 27 28 28 29 30 31 33 34 35 36 36 35 35 34 34 34 34 34 35 36 36 37 38
35 35 35 36 36 36 37 37 37 37 37 37 37 36 35 34 33 32 31 31 31 32 33 34 34 34 33 33 33 34 34 34 34 33 33 33 32 32 32 32 32 32 30 29 28 27 27 27 28 29 30 31 33 34 35 34 34 33 33 33 33 34 36 36 37 37 39 40 40
36 36 36 36 36 36 37 37 37 37 37 37 36 36 35 34 33 33 32 32 33 33 34 35 34 34 33 33 34 35 36 35 34 33 33 33 33 32 32 32 32 31 30 28 27 27 27 27 28 29 30 32 33 34 33 32 32 32 32 33 33 34 36 38 39 39 40 41 41
36 36 35 36 35 36 36 37 37 37 36 35 35 35 34 34 33 33 33 34 34 35 35 35 35 34 34 34 35 36 36 36 35 34 33 33 33 32 32 32 31 31 30 28 27 27 27 27 28 29 31 32 33 33 32 30 31 31 32 33 33 34 36 39 41 41 41 42 41
Wind_Direction
16 14 13 11 10 9 8 7 6 5 2 360 357 353 350 346 342 338 335 330 323 317 313 309 305 302 299 298 296 296 295 295 294 293 292 291 291 290 290 288 286 283 281 279 277 275 272 270 267 265 264 263 262 263 263 263 263 263 263 262 261 260 259 258 258 258 259 259 259
11 10 8 7 5 4 3 2 2 1 360 359 357 356 354 353 350 348 345 342 338 333 329 325 320 316 311 307 304 300 297 296 295 294 293 291 290 289 289 288 287 285 283 279 276 273 271 270 268 266 265 264 264 264 265 265 265 265 264 264 264 263 262 260 260 260 260 260 260
5 4 3 2 1 360 359 358 356 356 355 354 354 353 353 353 352 350 348 346 344 342 339 335 331 327 323 319 314 308 303 299 295 293 291 289 288 287 286 285 285 285 284 282 277 273 270 268 268 267 266 265 265 265 266 267 267 267 266 266 266 265 264 263 263 262 261 261 261
0 359 358 358 357 356 355 354 353 352 351 350 350 351 351 351 350 349 347 346 345 343 341 338 335 332 330 327 324 319 315 309 304 298 294 291 289 288 286 284 283 282 282 282 281 278 274 270 268 267 267 266 266 266 267 269 269 269 268 269 268 268 267 266 266 265 264 263 263
355 354 354 353 352 352 351 351 350 350 349 349 350 350 350 349 348 347 345 344 343 341 340 337 335 333 331 329 327 325 322 319 314 309 304 299 295 293 291 288 285 283 281 281 281 281 279 277 273 270 268 268 268 268 269 270 271 271 270 270 269 269 268 268 268 267 267 266 266
349 349 349 348 347 347 347 347 347 348 348 349 349 348 347 344 343 342 342 341 340 339 338 336 334 332 330 328 327 325 323 321 319 315 311 306 302 299 295 292 290 287 285 283 281 280 280 281 279 276 273 272 271 270 270 271 271 271 271 271 270 270 270 269 269 269 269 268 267
345 344 344 343 343 342 342 343 344 345 347 348 348 345 341 338 336 337 338 339 338 337 335 333 331 329 328 326 325 324 323 322 321 319 316 313 309 304 299 295 292 290 289 287 286 284 283 282 281 280 278 275 273 272 272 271 271 271 271 271 272 271 271 271 271 271 270 269 268
341 340 340 339 338 337 337 338 340 342 343 344 344 340 335 331 330 331 333 335 335 333 330 328 326 324 323 323 323 324 324 324 323 323 322 320 317 314 309 304 300 295 293 291 289 288 286 284 282 281 280 278 276 274 273 272 272 271 271 271 272 272 272 272 272 272 271 270 269
340 339 337 334 331 329 329 331 334 337 339 339 338 334 328 325 324 326 328 330 329 327 325 323 321 321 321 323 324 325 325 324 323 323 323 323 322 321 318 315 311 307 304 300 297 294 291 288 285 282 282 281 279 277 276 275 274 273 272 271 271 271 271 272 273 272 272 271 271
342 340 335 329 324 321 322 325 329 332 335 335 332 327 323 321 322 324 325 325 324 323 322 321 322 323 324 326 326 326 325 324 323 323 323 323 323 323 322 321 319 317 315 313 311 308 304 300 294 290 286 283 281 281 280 279 278 276 275 273 272 272 271 272 272 273 272 272 272
344 340 332 324 318 317 319 323 327 330 333 332 330 326 325 325 325 326 326 324 324 324 324 325 327 328 328 328 327 325 324 323 323 323 323 323 323 323 322 322 321 320 319 318 317 316 314 311 307 302 297 293 289 286 285 284 282 281 279 278 276 275 274 274 274 273 273 273 272
344 339 330 322 318 318 321 325 328 331 332 332 330 330 330 330 331 330 328 327 327 327 328 329 330 330 329 327 326 324 324 324 324 323 323 323 322 322 322 321 321 320 320 319 318 317 316 314 313 311 308 305 301 297 293 290 287 285 283 282 281 280 279 278 277 276 275 275 274
342 337 330 324 322 323 325 328 330 332 332 332 332 332 333 333 333 331 330 328 328 328 329 329 328 327 326 325 324 324 324 324 324 323 323 322 322 321 321 320 320 319 319 318 318 317 315 314 312 311 311 310 309 306 303 299 294 290 287 286 286 285 284 283 281 280 279 277 276
338 334 330 327 326 326 328 330 331 332 332 332 332 333 333 333 332 330 329 328 327 327 326 326 325 324 323 324 324 324 324 323 323 322 321 321 320 320 319 319 318 318 317 317 317 316 314 312 311 310 309 308 308 308 307 305 301 297 293 290 289 287 286 286 285 284 283 281 280
335 332 329 327 327 328 329 330 331 331 331 331 332 332 332 331 329 328 326 325 325 324 324 323 322 322 323 323 324 323 322 321 321 320 320 319 319 319 318 318 317 317 317 316 316 315 313 312 310 308 307 306 306 306 305 305 303 301 298 295 292 290 288 288 287 287 287 286 285
332 330 328 327 327 328 329 330 330 330 330 330 330 330 330 328 326 325 324 324 323 322 322 322 322 323 324 324 324 322 321 320 319 319 319 319 319 318 318 317 316 316 316 315 315 314 313 312 310 308 306 305 305 305 304 304 303 302 300 298 296 294 292 290 289 288 287 287 287
330 328 327 327 327 327 328 328 328 328 328 328 328 328 327 326 324 324 323 323 322 322 322 322 323 324 325 324 323 322 320 319 319 319 318 318 319 318 318 317 316 315 314 314 313 313 312 312 311 310 308 306 305 305 305 305 304 303 302 300 299 297 296 294 292 290 289 288 287
328 327 326 326 326 326 326 326 326 325 325 326 326 325 325 324 323 323 322 322 322 322 322 323 324 324 324 324 323 321 320 319 319 318 318 318 318 318 317 317 316 315 314 313 312 311 311 311 311 311 310 308 307 307 307 306 305 304 303 301 300 299 298 296 295 293 292 290 288
327 326 325 325 324 324 323 323 323 323 323 322 322 322 322 322 322 322 322 322 322 322 322 323 323 323 323 322 321 321 320 319 319 318 318 318 317 317 317 316 315 314 313 312 311 311 311 311 311 311 311 310 310 309 308 307 306 305 303 302 300 299 299 298 296 295 294 292 291
326 325 324 323 322 321 321 320 320 320 320 319 319 319 319 319 319 320 320 321 321 321 322 322 322 322 321 321 320 319 319 319 318 318 317 317 316 315 315 315 314 314 313 313 313 312 312 313 313 313 312 312 311 310 309 309 307 306 305 303 302 300 300 299 298 297 296 295 293
325 324 322 321 320 320 319 318 318 318 318 318 317 317 317 317 317 317 318 319 319 320 321 321 321 320 320 319 319 318 318 318 318 317 317 316 315 314 313 313 313 313 313 314 314 314 314 315 315 315 314 313 313 312 311 310 309 308 306 305 303 302 301 300 299 298 298 298 297
324 322 321 320 319 318 317 317 317 317 317 317 317 316 316 315 316 316 316 316 317 318 319 320 319 319 318 318 317 317 317 317 317 317 316 315 314 313 312 312 312 312 313 313 313 314 314 315 315 315 314 314 313 312 312 311 311 309 308 307 305 304 303 302 301 300 300 300 300
322 320 319 318 318 318 317 317 318 318 318 318 317 317 316 316 316 316 316 316 317 318 318 318 318 317 317 317 317 317 317 317 316 316 315 314 313 313 312 312 311 311 311 310 311 312 313 313 313 313 313 312 312 312 312 312 311 310 309 308 307 306 305 304 303 302 302 301 301
320 318 317 318 318 318 318 318 319 319 319 319 318 318 317 317 317 318 318 318 318 318 317 317 316 316 316 316 316 316 316 316 315 315 314 314 313 313 312 311 310 310 308 308 308 308 309 310 311 311 310 310 311 311 311 311 311 310 310 309 308 308 307 306 305 305 304 303 303
318 317 317 318 318 319 319 320 320 320 320 319 318 318 318 318 318 319 319 319 318 318 317 316 315 316 316 316 316 316 316 315 314 314 314 313 313 312 312 311 310 309 307 306 306 306 306 306 307 308 309 310 310 310 310 310 310 310 310 309 309 308 308 307 307 307 307 306 305
317 317 318 318 319 320 321 322 321 321 320 320 319 318 318 318 318 318 317 317 316 315 314 314 314 315 316 316 316 315 315 314 314 313 313 312 312 312 311 310 309 308 307 306 305 305 305 305 306 307 309 310 310 310 310 310 309 309 309 309 309 309 308 308 309 309 310 309 308
317 318 318 319 320 322 323 323 323 322 322 321 321 320 319 318 317 317 316 315 314 313 312 312 313 315 316 316 315 315 314 314 313 312 311 311 311 310 310 310 309 308 307 306 306 306 306 307 308 309 310 310 310 310 309 309 309 309 309 309 309 309 309 309 311 312 312 312 311
319 319 320 321 323 324 324 325 325 324 323 323 322 321 320 319 318 317 315 314 313 312 312 313 314 315 315 314 314 313 313 312 312 311 310 310 310 309 309 309 308 307 307 307 307 308 309 310 310 310 311 311 310 310 309 309 309 309 310 309 309 310 311 312 313 314 314 314 314
320 321 323 325 326 326 327 327 326 325 324 324 322 322 321 320 319 317 316 314 313 313 313 314 315 315 314 313 312 312 311 311 311 310 310 309 309 309 309 309 308 307 307 308 309 311 312 312 312 311 311 311 310 310 309 309 309 310 310 309 310 311 312 314 315 316 316 316 315
323 325 327 328 329 329 329 328 327 326 326 325 324 323 322 321 320 318 317 315 315 315 315 316 315 314 313 313 313 313 312 312 311 311 311 311 310 310 310 309 308 308 309 310 312 313 313 313 312 312 311 311 310 310 310 310 310 310 310 310 311 312 313 314 316 316 317 316 315
327 330 331 332 332 332 331 330 329 328 327 326 325 325 324 323 321 320 319 318 318 318 318 317 315 314 314 314 314 314 314 314 313 313 313 312 312 312 311 311 311 311 312 313 314 315 314 313 313 312 311 311 311 311 311 311 310 310 310 311 311 312 313 314 315 316 316 316 315
332 334 335 335 334 333 333 332 331 330 329 328 327 327 326 325 324 323 323 323 322 321 320 318 316 315 315 315 315 315 314 314 314 314 314 314 313 314 314 314 314 315 315 316 316 316 315 314 313 312 312 313 313 313 312 312 312 312 312 312 312 313 313 314 315 315 316 316 315
335 336 336 336 335 334 334 333 333 332 331 330 329 328 328 327 327 327 327 327 325 323 320 318 317 316 315 315 315 315 314 314 314 314 314 314 314 315 316 316 317 317 318 318 318 317 315 314 314 314 315 316 315 315 315 315 315 315 315 314 314 313 314 314 315 316 317 317 317
336 336 336 335 335 334 334 334 333 332 331 331 330 330 329 330 330 330 330 329 327 323 320 318 316 315 314 314 314 314 314 314 314 314 314 315 315 316 316 317 317 318 319 319 318 317 316 316 316 317 318 318 318 318 319 319 319 319 318 317 315 315 315 316 317 319 320 320 320
336 335 335 334 334 334 333 333 332 332 331 330 330 330 330 331 331 331 330 329 326 323 320 318 316 315 314 314 314 314 314 314 314 314 314 315 315 316 316 316 317 318 319 319 319 318 318 318 319 320 320 320 321 322 323 323 322 321 320 319 318 318 319 320 322 323 323 322 321
335 334 333 333 333 333 332 332 331 331 330 329 329 330 330 330 331 330 330 329 326 323 320 318 318 317 317 316 316 315 315 314 314 314 314 315 315 315 315 316 317 318 319 319 319 320 320 321 322 321 321 322 324 325 325 324 323 322 321 321 322 323 325 326 327 326 324 322 320
334 333 332 332 331 331 331 331 330 329 328 328 328 329 329 329 329 329 328 327 324 322 320 320 319 319 319 319 318 316 315 315 314 314 314 314 315 314 315 315 316 317 318 319 320 321 323 323 323 322 322 323 324 325 325 324 324 324 324 325 326 328 329 330 329 326 322 320 318
332 332 331 331 331 330 330 329 329 328 327 327 327 328 328 328 327 326 326 324 322 320 320 320 320 320 320 320 318 317 316 315 315 315 314 314 314 314 314 315 315 316 317 319 321 322 323 323 322 321 321 322 323 324 324 325 326 326 327 328 329 330 330 329 326 322 319 317 317
331 331 331 330 330 329 329 328 328 327 327 327 327 327 327 326 325 324 323 321 320 319 319 320 320 320 320 319 318 317 316 316 316 316 315 314 314 314 314 314 314 315 317 318 320 322 322 322 321 320 320 321 322 324 325 327 328 328 329 330 330 330 328 325 322 320 318 318 319
331 331 330 330 329 329 328 327 327 327 326 326 326 325 324 323 322 321 321 320 319 319 320 320 319 319 319 318 317 316 316 316 316 316 315 314 314 314 314 314 314 314 316 318 320 321 321 321 320 321 321 322 323 325 327 329 329 329 329 330 330 329 327 324 322 321 321 321 322
331 331 331 330 330 329 328 327 327 326 326 325 324 323 322 322 321 320 320 320 320 320 320 319 319 318 318 318 317 316 316 316 316 316 315 314 314 314 314 314 314 315 316 318 319 320 320 320 320 322 324 325 325 327 329 330 330 329 329 329 329 328 326 325 325 325 325 325 325